AA3JL Weather Reports


Display with metric or nautical units.
time (UTC)temp
F
wind
direction
speed
MPH
gust
MPH
rain 1hr
in
rain 24hr
in
rain mn
in
humidity
%
barometer
mb
20260504041540 40 0 0.0 0.0 0.00 0.00 0.00 76 1013.6
20260504040058 41 0 0.0 0.0 0.00 0.00 0.00 76 1013.6
20260504034553 41 0 0.0 0.0 0.00 0.00 0.00 75 1013.7
20260504033034 42 0 0.0 0.0 0.00 0.00 0.00 73 1013.7
20260504031536 43 0 0.0 0.0 0.00 0.00 0.00 71 1013.7
20260504030039 43 0 0.0 0.0 0.00 0.00 0.00 69 1013.7
20260504024535 44 0 0.0 1.0 0.00 0.00 0.00 67 1013.8
20260504023039 45 0 0.0 0.0 0.00 0.00 0.00 65 1013.8
20260504021538 46 0 0.0 0.0 0.00 0.00 0.00 63 1014.0
20260504020036 47 0 0.0 1.0 0.00 0.00 0.00 61 1013.9
20260504014536 48 0 0.0 2.0 0.00 0.00 0.00 59 1013.8
20260504013046 49 190 1.0 3.0 0.00 0.00 0.00 56 1013.8
20260504011541 51 0 0.0 3.0 0.00 0.00 0.00 53 1013.7
20260504010040 52 217 1.0 5.0 0.00 0.00 0.00 51 1013.7
20260504004539 53 212 2.0 5.0 0.00 0.00 0.00 48 1013.6
20260504003034 53 212 3.0 6.0 0.00 0.00 0.00 47 1013.7
20260504001536 54 221 3.0 9.0 0.00 0.00 0.00 45 1013.6
20260504000036 55 234 4.0 9.0 0.00 0.00 0.00 44 1013.6
20260503234540 56 225 6.0 11.0 0.00 0.00 0.00 42 1013.6
20260503233040 56 203 7.0 14.0 0.00 0.00 0.00 41 1013.7
20260503231536 57 192 11.0 19.0 0.00 0.00 0.00 39 1013.6
20260503230033 58 223 7.0 16.0 0.00 0.00 0.00 39 1013.6
20260503224533 59 243 6.0 21.0 0.00 0.00 0.00 38 1013.8
20260503223041 59 206 5.0 18.0 0.00 0.00 0.00 38 1013.8
20260503221543 59 223 6.0 15.0 0.00 0.00 0.00 40 1013.9
20260503220040 59 217 10.0 20.0 0.00 0.00 0.00 39 1013.7
20260503214539 60 227 8.0 18.0 0.00 0.00 0.00 38 1013.7
20260503213041 61 219 7.0 14.0 0.00 0.00 0.00 39 1013.7
20260503211548 61 217 7.0 16.0 0.00 0.00 0.00 38 1013.7
20260503210039 60 254 9.0 18.0 0.00 0.00 0.00 39 1013.8
20260503204546 59 236 8.0 17.0 0.00 0.00 0.00 39 1014.0
20260503203042 60 235 8.0 23.0 0.00 0.00 0.00 38 1014.0
20260503201539 59 235 8.0 15.0 0.00 0.00 0.00 39 1014.2
20260503200037 58 275 8.0 17.0 0.00 0.00 0.00 40 1014.4
20260503194545 59 250 8.0 19.0 0.00 0.00 0.00 40 1014.7
20260503193049 58 205 6.0 16.0 0.00 0.00 0.00 41 1014.8
20260503191538 59 223 5.0 16.0 0.00 0.00 0.00 42 1015.0
20260503190049 59 306 6.0 18.0 0.00 0.00 0.00 41 1015.1
20260503184536 59 201 9.0 19.0 0.00 0.00 0.00 42 1015.5
20260503183042 57 309 10.0 19.0 0.00 0.00 0.00 40 1015.7
20260503181541 56 248 7.0 17.0 0.00 0.00 0.00 46 1015.8
20260503180050 57 261 7.0 17.0 0.00 0.00 0.00 38 1015.9
20260503174539 57 207 10.0 17.0 0.00 0.00 0.00 43 1016.1
20260503173044 57 258 8.0 17.0 0.00 0.00 0.00 43 1016.1
20260503171542 56 229 10.0 19.0 0.00 0.00 0.00 42 1016.4
20260503081545 34 0 0.0 1.0 0.00 0.00 0.00 87 1016.0
20260503071543 34 0 0.0 2.0 0.00 0.00 0.00 88 1015.6
20260503054542 35 0 0.0 1.0 0.00 0.00 0.00 82 1015.6
20260503053039 36 288 0.0 1.0 0.00 0.00 0.00 80 1015.7
20260503051539 37 0 0.0 1.0 0.00 0.00 0.00 79 1015.8
20260503050037 38 0 0.0 3.0 0.00 0.00 0.00 78 1015.9
20260503044537 38 254 1.0 3.0 0.00 0.00 0.00 78 1015.9
20260503043042 39 254 1.0 4.0 0.00 0.00 0.00 78 1015.9